Regional Weather Roundup
Issued by NWS

Home | Current Version | Previous Version | Text Only | Print | Product List | Glossary Off
Versions: 1 2 3 4 5 6 7 8 9 10 11 12 13 14 15 16 17 18 19 20 21 22 23 24 25 26 27 28 29 30 31 32 33 34 35 36 37 38 39 40 41 42 43 44 45 46 47 48 49 50

000
ASUS43 KMKX 230000
RWRWI

WISCONSIN REGIONAL WEATHER ROUNDUP
NATIONAL WEATHER SERVICE MILWAUKEE/SULLIVAN WI
700 PM CDT MON SEP 22 2014

NOTE: "FAIR" INDICATES FEW OR NO CLOUDS BELOW 12,000 FEET WITH NO
SIGNIFICANT WEATHER AND/OR OBSTRUCTIONS TO VISIBILITY.

WIZ001-002-006>008-014>016-023>028-230100-
NORTHWEST WISCONSIN

CITY           SKY/WX    TMP DP  RH WIND       PRES   REMARKS
SUPERIOR ARPT  CLEAR     67  53  59 SW8       30.09F
ASHLAND        CLEAR     60  53  77 S6        30.11S
6HR MIN TEMP:  60; 6HR MAX TEMP:  71;

HAYWARD        CLEAR     65  51  60 SW5       30.14F
6HR MIN TEMP:  63; 6HR MAX TEMP:  68;

SIREN          CLEAR     66  51  58 SW5       30.14F
RICE LAKE      CLEAR     64  50  60 CALM      30.17F
6HR MIN TEMP:  63; 6HR MAX TEMP:  68;

LADYSMITH      CLEAR     64  52  64 SW5       30.18S
EAU CLAIRE     NOT AVBL
MENOMONIE      CLEAR     65  50  58 CALM      30.16F
6HR MIN TEMP:  65; 6HR MAX TEMP:  71;

NEW RICHMOND   CLEAR     65  51  59 SW5       30.16F
OSCEOLA        CLEAR     67  52  57 SW5       30.18S
$$

WIZ003>005-009-010-017-018-230100-
NORTH CENTRAL WISCONSIN

CITY           SKY/WX    TMP DP  RH WIND       PRES   REMARKS
WOODRUFF       CLEAR     62  48  60 W3        30.15S
RHINELANDER    CLEAR     55  48  77 W3        30.16S
6HR MIN TEMP:  55; 6HR MAX TEMP:  66;

EAGLE RIVER    CLEAR     58  47  66 SW3       30.14S
LAND O LAKES   CLEAR     61  49  64 SW3       30.14S
PHILLIPS       CLEAR     57  51  80 CALM      30.15S
6HR MIN TEMP:  57; 6HR MAX TEMP:  66;

TOMAHAWK       CLEAR     60  49  66 CALM      30.16F
MEDFORD        CLEAR     60  51  71 SW3       30.17S
MERRILL        CLEAR     61  50  69 W5        30.17S
$$

WIZ029-030-035-036-043>047-230100-
CENTRAL WISCONSIN

CITY           SKY/WX    TMP DP  RH WIND       PRES   REMARKS
WAUSAU         CLEAR     60  49  66 W6        30.16S
6HR MIN TEMP:  60; 6HR MAX TEMP:  66;

MOSINEE        NOT AVBL
MARSHFIELD     CLEAR     61  51  70 W5        30.18S
6HR MIN TEMP:  61; 6HR MAX TEMP:  68;

STEVENS POINT  CLEAR     62  49  61 W3        30.18S
WAUPACA        CLEAR     65  51  60 W3        30.17S
WAUTOMA        NOT AVBL
WISC RAPIDS    CLEAR     62  50  64 W5        30.19S
6HR MIN TEMP:  62; 6HR MAX TEMP:  69;

CAMP DOUGLAS   NOT AVBL
$$

WIZ011>013-019>022-031-037>040-048>050-230100-
NORTHEAST WISCONSIN

CITY           SKY/WX    TMP DP  RH WIND       PRES   REMARKS
ANTIGO         CLEAR     59  50  72 W6        30.17R
STURGEON BAY   CLEAR     61  48  63 SW5       30.15S
6HR MIN TEMP:  61; 6HR MAX TEMP:  66;

GREEN BAY      CLEAR     60  51  72 SW3       30.16S
6HR MIN TEMP:  60; 6HR MAX TEMP:  69;

MANITOWOC      NOT AVBL
APPLETON       CLEAR     63  48  59 SW7       30.17S
CLINTONVILLE   CLEAR     63  50  63 W3        30.16S
OSHKOSH        CLEAR     63  50  62 SW3       30.17S
6HR MIN TEMP:  63; 6HR MAX TEMP:  68;

$$

WIZ032>034-041-042-053>061-230100-
SOUTHWEST WISCONSIN

CITY           SKY/WX    TMP DP  RH WIND       PRES   REMARKS
LA CROSSE      CLEAR     65  54  67 CALM      30.17F
6HR MIN TEMP:  65; 6HR MAX TEMP:  73; 6HR PCP: TRACE;

SPARTA         CLEAR     64  52  63 CALM      30.19S
VIROQUA        FAIR      64  50  61 CALM      30.20S
BOSCOBEL       CLEAR     64  52  64 CALM      30.20S
6HR MIN TEMP:  64; 6HR MAX TEMP:  72;

PRAIRIE DU CHI CLEAR     68  49  50 CALM      30.19S
PLATTEVILLE    FAIR      64  49  57 W5        30.22S
$$

WIZ056-057-062-063-064-067-068-230100-
SOUTH CENTRAL WISCONSIN

CITY           SKY/WX    TMP DP  RH WIND       PRES   REMARKS
BARABOO/DELLS  CLEAR     64  49  58 W3        30.20S
LONE ROCK      NOT AVBL
WATERTOWN      CLEAR     63  48  59 W3        30.20S
MADISON        PTCLDY    60  51  72 CALM      30.20F
6HR MIN TEMP:  60; 6HR MAX TEMP:  70;

MIDDLETON      FAIR      64  49  59 SW3       30.21S
MONROE         CLEAR     64  46  52 W6        30.21F
JANESVILLE     CLEAR     64  45  48 CALM      30.21S
$$

WIZ051-052-058>065-066-070>072-230100-
SOUTHEAST WISCONSIN

CITY           SKY/WX    TMP DP  RH WIND       PRES   REMARKS
MILWAUKEE      PTCLDY    66  45  46 W5        30.20S
6HR MIN TEMP:  64; 6HR MAX TEMP:  68;

WAUKESHA       CLEAR     61  46  59 W9        30.21S
MILWAUKEE/TIMM NOT AVBL
RACINE         CLEAR     58  49  72 S8        30.22S
6HR MIN TEMP:  58; 6HR MAX TEMP:  67;

BURLINGTON     CLEAR     60  46  58 W5        30.21S
KENOSHA        CLEAR     63  48  58 SW3       30.21S
6HR MIN TEMP:  60; 6HR MAX TEMP:  68;

FOND DU LAC    CLEAR     62  49  62 SW5       30.18S
6HR MIN TEMP:  62; 6HR MAX TEMP:  68;

SHEBOYGAN      CLEAR     57  49  74 CALM      30.18S
6HR MIN TEMP:  56; 6HR MAX TEMP:  68;

WEST BEND      CLEAR     63  45  51 W3        30.19F
JUNEAU         CLEAR     61  50  67 SW5       30.21S
$$

LSZ147-162-230100-
LAKE SUPERIOR

STATION/POSITION TIME  TEMP    WIND        PRES    WAVE
                       AIR SEA DIR/SP/G            HT/PER
                 (UTC) (F)     (DEG/KT/KT) (MB)    (FT/S)
W MID LAKE BUOY  2250   53 47  210/ 12/ 12 1017.7F   2/ 4
DEVILS ISLAND    2300   63     230/ 16/ 20 1018.3F
PORT WING        2300   71     220/  6/ 10 1019.0
SAXON HARBOR     2300   69     200/  3/  8 1019.6S
$$

LMZ867-665-643>646-230100-
LAKE MICHIGAN

STATION/POSITION TIME  TEMP    WIND        PRES    WAVE
                       AIR SEA DIR/SP/G            HT/PER
                 (UTC) (F)     (DEG/KT/KT) (MB)    (FT/S)
N MID LAKE BUOY  2250   58 57  200/ 16/ 17 1020.0F   2/ 3
NORTHPORT PIER   2300   65     210/  3/  7 1019.6S
KEWAUNEE LAKESHO 2300   66     240/  3/  5 1020.2R
SHEBOYGAN LAKESH 2300   61 54  180/ 13/ 14 1022.2F
PORT WASHINGTON  2340   57     190/  6/ 11 1022.7S
ATWATER BUOY     2300   59     150/ 12/ 14 1023.5S
S MID LAKE BUOY  2250   59 62  190/  8/ 10 1023.6F   2/ 6
KENOSHA   LAKESH 2300   59     170/ 11/ 14 1022.4F
$$

TC  - TEMPERATURE IN CELSIUS
VSB - VISIBILITY IN STATUTE MILES
WCI - WIND CHILL INDEX
HX  - HEAT INDEX




USA.gov is the U.S. government's official web portal to all federal, state and local government web resources and services.